Location: Cisewo
(53.3833°N, 14.9000°E)
Time: 10:51:03
(UTC+00:00)

USA 281 - Pass Details

Date: 18 April 2021
Orbit: 1078 x 1081 km, 106.0° (Epoch: 07 May)

Event Time Altitude Azimuth Distance (km) Brightness Sun altitude
Exits shadow 23:33:04 52° 204° (SSW) 1,315 3.2 -25.0°
Maximum altitude 23:34:17 61° 247° (WSW) 1,217 3.2 -25.0°
Drops below altitude 10° 23:40:48 10° 327° (NNW) 2,931 6.1 -24.8°
Sets 23:43:22 0° 331° (NNW) 3,891 6.9 -24.8°
